< < Back
Terminal Aerodrome Forecast


Current Version              Previous Versions:   1  2  3  4  5  6  7  8  9  

Terminal Aerodrome Forecast

908
FTUS44 KHUN 311139
TAFHSV
TAF
KHSV 311139Z 3112/0112 36005KT P6SM FEW250
     FM311400 03010KT P6SM SKC
     FM311700 03012G18KT P6SM SKC
     FM010000 02007KT P6SM SKC=



Latest METAR

874
SAUS80 KWBC 011000 CCA
MTRHSV
METAR KHSV 010953Z AUTO 00000KT 10SM CLR 19/16 A2999 RMK AO2 SLP148
T01940161


USA.gov is the U.S. government's official web portal to all federal, state and local government web resources and services.